Weather in Melnikovo

Russia / Tomsk District     56°33′22″N   84°04′47″E
temp.,
°C
wind,
m/s
gust,
m/s
humid.,
%
clouds,
%
prec.,
mm/h
press.,
hPa
HPBL,
m
23 september, thu
thu2301:00+2ssw1299100 2.0 1018629
04:00+2wnw1298100 0.6 1018372
07:00+2nw129999 0.6 1020249
10:00+3nw239699 0.1 1021440
13:00+4n128296 0.4 1021651
16:00+4nnw238598 0.5 1022546
19:00+1wnw258696 0.4 1023196
22:00−1w119323 0.0 102310
24 september, fri
fri2401:000sw2390100 0.0 102498
04:00+1sw2689100 0.0 1023191
07:00+1sw3891100 0.0 1023292
10:00+3wsw4883100 0.0 1023627
13:00+5wsw5871100 0.1 10221106
16:00+3sw51095100 0.3 1022808
19:00+3wsw41097100 0.6 1022718
22:00+3sw41097100 0.1 1021843
25 september, sat
sat2501:00+3sw4998100 1.1 1020805
04:00+3sw3798100 1.2 1019597
07:00+2wnw2592100 0.9 1022595
10:00+2nw2499100 1.0 1019252
13:00+2nw139997 1.4 1019175
16:00+4nw2378100 0.3 1019747
19:00+2nne1291100 0.7 102042
22:000ne2398100 0.1 102079
26 september, sun
sun2601:00−1nne2599100 0.1 1019158
04:000nne2695100 0.0 1019344
07:00+1n3896100 0.0 1019472
10:00+1n51097100 0.3 1018502
13:00+2nne41098100 1.1 1018613
16:00+3nne5995100 0.1 1020794
19:00+3nne4993100 0.1 1021845
22:00+2nne4996100 0.4 1022812
27 september, mon
mon2701:00+3nne3899100 0.6 1023574
04:00+3nne3698100 0.1 1024489
07:00+3nne3897100 0.2 1025526
10:00+4nne369098 0.0 1026512
13:00+5nne3479100 0.0 1027804
16:00+6nne347094 0.0 10271022
19:00+4nne3783100 0.1 1028378
22:00+3nne2693100 0.1 1028313